• In Russia
  • List of Countries
  • For 7 days
  • Water Temperature
  • Satellite Maps
  • Weather Map
  • Weather Widgets
  • user-avatar
    Login

    Hourly Weather Karamyshevo

    Today, 22 April, Sunday

    Time Temperature Precipitation Wind Pressure Humidity
    00:00 +1°C° 0.1 mm 9 mps 736 mmHg 56%
    01:00 +1°C° 0 mm 9 mps 735 mmHg 58%
    02:00 +1°C° 0 mm 9 mps 734 mmHg 60%
    03:00 +1°C° 0 mm 13 mps 732 mmHg 56%
    04:00 +2°C° 0 mm 12 mps 732 mmHg 60%
    05:00 +3°C° 0 mm 11 mps 731 mmHg 64%
    06:00 +3°C° 0 mm 10 mps 730 mmHg 68%
    07:00 +4°C° 0.7 mm 11 mps 730 mmHg 70%
    08:00 +4°C° 0.7 mm 11 mps 729 mmHg 73%
    09:00 +6°C° 0 mm 11 mps 729 mmHg 76%
    10:00 +6°C° 1.1 mm 10 mps 729 mmHg 79%
    11:00 +6°C° 1.1 mm 10 mps 729 mmHg 81%
    12:00 +5°C° 1.1 mm 9 mps 729 mmHg 84%
    13:00 +6°C° 0.3 mm 9 mps 729 mmHg 80%
    14:00 +7°C° 0.3 mm 8 mps 729 mmHg 76%
    15:00 +8°C° 0 mm 7 mps 730 mmHg 71%
    16:00 +6°C° 0.1 mm 7 mps 730 mmHg 71%
    17:00 +5°C° 0.1 mm 7 mps 731 mmHg 72%
    18:00 +4°C° 0.1 mm 6 mps 731 mmHg 72%
    19:00 +3°C° 0 mm 6 mps 732 mmHg 73%
    20:00 +2°C° 0 mm 6 mps 733 mmHg 74%
    21:00 +1°C° 0 mm 6 mps 733 mmHg 75%
    22:00 -1°C° 0 mm 6 mps 733 mmHg 75%
    23:00 -2°C° 0 mm 6 mps 734 mmHg 76%

    Tomorrow, 23 April, Monday

    Time Temperature Precipitation Wind Pressure Humidity
    00:00 -2°C° 0 mm 5 mps 734 mmHg 77%
    01:00 -3°C° 0 mm 6 mps 734 mmHg 77%
    02:00 -3°C° 0 mm 6 mps 734 mmHg 77%
    03:00 -3°C° 0 mm 6 mps 735 mmHg 77%
    04:00 -3°C° 0 mm 7 mps 735 mmHg 76%
    05:00 -3°C° 0 mm 7 mps 735 mmHg 74%
    06:00 -3°C° 0 mm 7 mps 736 mmHg 73%
    07:00 -3°C° 0 mm 7 mps 736 mmHg 71%
    08:00 -2°C° 0 mm 7 mps 736 mmHg 69%
    09:00 -2°C° 0 mm 7 mps 737 mmHg 67%
    10:00 -1°C° 0.1 mm 7 mps 737 mmHg 66%
    11:00 -1°C° 0.1 mm 6 mps 738 mmHg 64%
    12:00 +1°C° 0.1 mm 6 mps 738 mmHg 63%
    13:00 +1°C° 0.1 mm 6 mps 739 mmHg 63%
    14:00 +1°C° 0.1 mm 6 mps 739 mmHg 64%
    15:00 +1°C° 0.1 mm 6 mps 739 mmHg 64%
    16:00 0°C° 0 mm 5 mps 740 mmHg 66%
    17:00 0°C° 0 mm 5 mps 740 mmHg 68%
    18:00 -1°C° 0 mm 5 mps 740 mmHg 71%
    19:00 -1°C° 0 mm 5 mps 741 mmHg 75%
    20:00 -2°C° 0 mm 4 mps 741 mmHg 79%
    21:00 -3°C° 0 mm 4 mps 741 mmHg 83%
    22:00 -3°C° 0 mm 4 mps 741 mmHg 84%
    23:00 -3°C° 0 mm 4 mps 741 mmHg 85%

    Day after tomorrow, 24 April, Tuesday

    Time Temperature Precipitation Wind Pressure Humidity
    00:00 -3°C° 0 mm 4 mps 741 mmHg 86%
    01:00 -3°C° 0.1 mm 4 mps 741 mmHg 85%
    02:00 -4°C° 0.1 mm 5 mps 742 mmHg 84%
    03:00 -4°C° 0.1 mm 5 mps 742 mmHg 84%
    04:00 -4°C° 0.1 mm 5 mps 742 mmHg 82%
    05:00 -4°C° 0.1 mm 6 mps 742 mmHg 80%
    06:00 -4°C° 0.1 mm 6 mps 743 mmHg 79%
    07:00 -3°C° 0.1 mm 6 mps 743 mmHg 76%
    08:00 -3°C° 0.1 mm 6 mps 743 mmHg 74%
    09:00 -2°C° 0.1 mm 6 mps 743 mmHg 71%
    10:00 -2°C° 0.1 mm 7 mps 744 mmHg 69%
    11:00 -1°C° 0.1 mm 7 mps 744 mmHg 67%
    12:00 -1°C° 0.1 mm 7 mps 744 mmHg 65%
    13:00 -1°C° 0.1 mm 7 mps 745 mmHg 65%
    14:00 -1°C° 0.1 mm 6 mps 745 mmHg 65%
    15:00 +1°C° 0.1 mm 6 mps 745 mmHg 65%
    16:00 -1°C° 0 mm 6 mps 745 mmHg 67%
    17:00 0°C° 0 mm 5 mps 746 mmHg 69%
    18:00 -1°C° 0 mm 5 mps 746 mmHg 72%
    19:00 -1°C° 0 mm 4 mps 746 mmHg 76%
    20:00 -2°C° 0 mm 4 mps 747 mmHg 80%
    21:00 -2°C° 0 mm 3 mps 747 mmHg 85%
    22:00 -2°C° 0 mm 3 mps 747 mmHg 86%
    23:00 -2°C° 0 mm 3 mps 748 mmHg 87%

    25 April, Wednesday

    Time Temperature Precipitation Wind Pressure Humidity
    00:00 -2°C° 0 mm 3 mps 748 mmHg 88%
    01:00 -4°C° 0 mm 3 mps 748 mmHg 89%
    02:00 -4°C° 0 mm 3 mps 748 mmHg 90%
    03:00 -4°C° 0 mm 3 mps 749 mmHg 91%
    04:00 -2°C° 0 mm 3 mps 749 mmHg 88%
    05:00 -2°C° 0 mm 3 mps 749 mmHg 85%
    06:00 -1°C° 0 mm 3 mps 750 mmHg 81%
    07:00 0°C° 0 mm 3 mps 750 mmHg 73%
    08:00 +1°C° 0 mm 3 mps 750 mmHg 66%
    09:00 +2°C° 0 mm 3 mps 750 mmHg 58%
    10:00 +3°C° 0 mm 3 mps 750 mmHg 56%
    11:00 +3°C° 0 mm 3 mps 750 mmHg 54%
    12:00 +5°C° 0 mm 2 mps 750 mmHg 53%
    13:00 +5°C° 0 mm 2 mps 750 mmHg 52%
    14:00 +5°C° 0 mm 2 mps 750 mmHg 51%
    15:00 +5°C° 0 mm 2 mps 750 mmHg 51%
    16:00 +5°C° 0 mm 2 mps 750 mmHg 54%
    17:00 +6°C° 0 mm 1 mps 750 mmHg 56%
    18:00 +5°C° 0 mm 1 mps 750 mmHg 59%
    19:00 +3°C° 0 mm 2 mps 750 mmHg 62%
    20:00 +2°C° 0 mm 2 mps 750 mmHg 65%
    21:00 +1°C° 0 mm 2 mps 750 mmHg 68%
    22:00 0°C° 0 mm 3 mps 750 mmHg 68%
    23:00 0°C° 0 mm 3 mps 750 mmHg 69%

    26 April, Thursday

    Time Temperature Precipitation Wind Pressure Humidity
    00:00 0°C° 0 mm 3 mps 750 mmHg 69%
    01:00 0°C° 0 mm 3 mps 750 mmHg 69%
    02:00 +1°C° 0 mm 3 mps 750 mmHg 69%
    03:00 +1°C° 0 mm 3 mps 750 mmHg 69%
    04:00 0°C° 0 mm 4 mps 750 mmHg 71%
    05:00 +1°C° 0 mm 4 mps 749 mmHg 74%
    06:00 +1°C° 0 mm 5 mps 749 mmHg 76%
    07:00 +3°C° 0 mm 5 mps 749 mmHg 76%
    08:00 +5°C° 0 mm 5 mps 749 mmHg 76%
    09:00 +7°C° 0 mm 6 mps 748 mmHg 75%
    10:00 +8°C° 0 mm 6 mps 748 mmHg 71%
    11:00 +9°C° 0 mm 7 mps 747 mmHg 67%
    12:00 +10°C° 0 mm 7 mps 747 mmHg 63%
    13:00 +10°C° 0.2 mm 7 mps 746 mmHg 65%
    14:00 +10°C° 0.2 mm 7 mps 745 mmHg 67%
    15:00 +10°C° 0.2 mm 7 mps 745 mmHg 69%
    16:00 +9°C° 1.2 mm 7 mps 744 mmHg 74%
    17:00 +9°C° 1.2 mm 7 mps 743 mmHg 79%
    18:00 +7°C° 1.2 mm 8 mps 741 mmHg 83%
    19:00 +8°C° 2.9 mm 7 mps 741 mmHg 86%
    20:00 +8°C° 2.9 mm 7 mps 740 mmHg 89%
    21:00 +6°C° 2.9 mm 7 mps 739 mmHg 91%
    22:00 +6°C° 0.4 mm 7 mps 738 mmHg 91%
    23:00 +6°C° 0.4 mm 8 mps 738 mmHg 91%

    27 April, Friday

    Time Temperature Precipitation Wind Pressure Humidity
    00:00 +6°C° 0.4 mm 8 mps 738 mmHg 91%
    01:00 +6°C° 0 mm 7 mps 739 mmHg 91%
    02:00 +5°C° 0 mm 7 mps 740 mmHg 91%
    03:00 +4°C° 0 mm 6 mps 741 mmHg 90%
    04:00 +4°C° 0 mm 6 mps 742 mmHg 89%
    05:00 +4°C° 0 mm 6 mps 743 mmHg 87%
    06:00 +4°C° 0 mm 7 mps 744 mmHg 85%
    07:00 +6°C° 0 mm 7 mps 744 mmHg 78%
    08:00 +8°C° 0 mm 7 mps 745 mmHg 71%
    09:00 +9°C° 0 mm 7 mps 746 mmHg 64%
    10:00 +11°C° 0 mm 7 mps 746 mmHg 59%
    11:00 +12°C° 0 mm 7 mps 747 mmHg 55%
    12:00 +14°C° 0 mm 7 mps 747 mmHg 50%
    13:00 +13°C° 0.1 mm 8 mps 747 mmHg 49%
    14:00 +13°C° 0.1 mm 8 mps 747 mmHg 48%
    15:00 +15°C° 0.1 mm 8 mps 748 mmHg 47%
    16:00 +14°C° 0.1 mm 7 mps 748 mmHg 52%
    17:00 +13°C° 0.1 mm 6 mps 748 mmHg 57%
    18:00 +12°C° 0.1 mm 5 mps 748 mmHg 62%
    19:00 +10°C° 0.3 mm 5 mps 748 mmHg 68%
    20:00 +10°C° 0.3 mm 5 mps 748 mmHg 73%
    21:00 +9°C° 0.3 mm 5 mps 748 mmHg 79%
    22:00 +8°C° 0 mm 5 mps 749 mmHg 80%
    23:00 +8°C° 0 mm 5 mps 749 mmHg 82%
    Show more